Weather History for Newport, AR

Change the Weather History Date:

Thursday, March 28, 2013

  Actual Average (KJBR) Record (KJBR)
Temperature  
Mean Temperature 52 °F 54 °F  
Max Temperature 68 °F 64 °F 88 °F (1910)
Min Temperature 36 °F 44 °F 22 °F (1899)
Degree Days  
Heating Degree Days 13 11  
Month to date heating degree days 432  
Since 1 July heating degree days 3388  
Cooling Degree Days 0 0  
Month to date cooling degree days 0  
Year to date cooling degree days 0  
Growing Degree Days 2 (Base 50)    
Moisture  
Dew Point 40 °F    
Average Humidity 65    
Maximum Humidity 93    
Minimum Humidity 39    
Precipitation  
Precipitation 0.00 in 0.16 in 2.02 in (1921)
Month to date precipitation 4.03  
Year to date precipitation 11.18  
Snow  
Snow 0.00 in 0.00 in - ()
Month to date snowfall 0.7  
Since 1 July snowfall 4.8  
Snow Depth -    
Sea Level Pressure  
Sea Level Pressure 30.28 in    
Wind  
Wind Speed 6 mph (SE)    
Max Wind Speed 13 mph    
Max Gust Speed 17 mph    
Visibility 10 miles    
Events      
T = Trace of Precipitation, MM = Missing Value Source: NWS Daily Summary

Daily Weather History Graph

Daily Weather History Graph

Search for Another Location

Airport:

Trip Planner

Search our weather history database for the weather conditions in past years. The results will help you decide how hot, cold, wet, or windy it might be!

Date:

Astronomy

Mar. 28, 2013 Rise Set
Actual Time 6:56 AM CDT 7:23 PM CDT
Civil Twilight 6:30 AM CDT 7:48 PM CDT
Nautical Twilight 6:00 AM CDT 8:19 PM CDT
Astronomical Twilight 5:30 AM CDT 8:49 PM CDT
Moon 9:10 PM CDT (3/28) 7:28 AM CDT (3/28)
Length of Visible Light 13h 18m
Length of Day
12h 26m
Full, 98% of the Moon is Illuminated
Mar 28
Full
Apr 2
Last Quarter
Apr 10
New
Apr 18
First Quarter
Apr 25
Full

Hourly Weather History & Observations

Time (CDT) Temp. Windchill Dew Point Humidity Pressure Visibility Wind Dir Wind Speed Gust Speed Precip Events Conditions
12:56 AM 38.8 °F 36.5 °F 32.9 °F 79% 30.34 in 10.0 mi ENE 3.5 mph - N/A   Clear
1:56 AM 36.9 °F 34.3 °F 34.0 °F 89% 30.33 in 10.0 mi ESE 3.5 mph - N/A   Clear
2:56 AM 36.9 °F 32.2 °F 32.9 °F 86% 30.31 in 10.0 mi SSE 5.8 mph - N/A   Clear
3:56 AM 38.8 °F 36.5 °F 34.9 °F 86% 30.31 in 10.0 mi SE 3.5 mph - N/A   Overcast
4:56 AM 39.9 °F - 34.9 °F 82% 30.31 in 10.0 mi Calm Calm - N/A   Overcast
5:56 AM 38.8 °F 36.5 °F 36.9 °F 93% 30.32 in 10.0 mi East 3.5 mph - N/A   Overcast
6:56 AM 39.9 °F - 36.9 °F 89% 30.32 in 10.0 mi North - - N/A   Overcast
7:56 AM 41.0 °F 37.1 °F 36.0 °F 82% 30.34 in 10.0 mi East 5.8 mph - N/A   Overcast
8:56 AM 43.9 °F 40.5 °F 36.9 °F 76% 30.35 in 10.0 mi East 5.8 mph - N/A   Overcast
9:56 AM 50.9 °F - 36.0 °F 57% 30.35 in 10.0 mi SSE 10.4 mph - N/A   Partly Cloudy
10:56 AM 54.9 °F - 36.9 °F 51% 30.35 in 10.0 mi North - - N/A   Overcast
11:56 AM 59.9 °F - 34.9 °F 39% 30.33 in 10.0 mi South 11.5 mph - N/A   Clear
12:56 PM 61.9 °F - 37.9 °F 41% 30.31 in 10.0 mi SSE 12.7 mph - N/A   Overcast
1:56 PM 63.9 °F - 41.0 °F 43% 30.28 in 10.0 mi South 9.2 mph 17.3 mph N/A   Clear
2:56 PM 65.8 °F - 43.0 °F 43% 30.24 in 10.0 mi SSE 9.2 mph - N/A   Clear
3:56 PM 68.0 °F - 45.0 °F 43% 30.22 in 10.0 mi SSE 9.2 mph - N/A   Scattered Clouds
4:56 PM 68.0 °F - 45.9 °F 45% 30.21 in 10.0 mi South 9.2 mph - N/A   Partly Cloudy
5:56 PM 65.8 °F - 46.9 °F 50% 30.21 in 10.0 mi South 11.5 mph - N/A   Partly Cloudy
6:56 PM 63.0 °F - 46.9 °F 56% 30.21 in 10.0 mi South 11.5 mph - N/A   Clear
7:56 PM 55.9 °F - 45.9 °F 69% 30.21 in 10.0 mi SSE 8.1 mph - N/A   Clear
8:56 PM 55.9 °F - 46.9 °F 72% 30.22 in 10.0 mi SSE 10.4 mph - N/A   Clear
9:56 PM 54.9 °F - 45.0 °F 69% 30.24 in 10.0 mi SSE 8.1 mph - N/A   Clear
10:56 PM 54.9 °F - 43.9 °F 66% 30.24 in 10.0 mi SSE 10.4 mph - N/A   Clear
11:56 PM 54.9 °F - 43.9 °F 66% 30.23 in 10.0 mi North - - N/A   Clear